Other Public Products
Issued by NWS Charleston, SC

Current Version | Previous Version | Graphics & Text | Print | Product List | Glossary On
Versions: 1 2 3 4 5 6 7 8 9 10 11 12 13 14 15 16 17 18 19 20 21 22 23 24 25 26 27 28 29 30 31 32 33 34 35 36 37 38 39 40 41 42 43 44 45 46 47 48 49 50
246
FPUS82 KCHS 221512
OPUCHS

TEST...KCHS/KSAV Gateway Observations...TEST
National Weather Service Charleston SC
1000 AM EST THU FEB 22 2018

NOTE: "fair" indicates few or no clouds below 12,000 feet with no
significant weather and/or obstructions to visibility.

SCZ050-WAZ558-NCZ071-TXZ119-213-PAZ071-DCZ001-FLZ074-172-MI076-
NYZ176-178-MAZ016-IL014-TNZ027-NJZ106-GAZ044-MD014-221600-

...Gateway Observations for Charleston International...

CITY           SKY/WX    TMP DP  RH WIND       PRES   REMARKS
Chas Airport   FAIR      77  65  66 SE10      30.49S
Seattle        MOCLDY    28  22  78 N13       30.24R WCI  17
Charlotte      CLOUDY    68  64  87 SW13      30.48S
Dallas DFW     TSTM      36  35  96 E17       30.22F VSB 1/2 WCI  26
Dallas Love    TSTM      36  33  89 NE10G17   30.26F FOG     WCI  28
Philladelphia  CLOUDY    47  40  76 NE13G22   30.54F
Wash National  CLOUDY    55  41  59 NE14      30.49R
Baltimore      CLOUDY    51  42  71 NE13      30.49S
Miami          FAIR      79  68  69 E17G24    30.36S
Detroit        CLOUDY    32  22  66 NE12      30.61F WCI  23
Newark         LGT RAIN  44  37  76 N15       30.61R
Laguardia      CLOUDY    46  36  68 NE12      30.60R
J F K          CLOUDY    46  36  68 NE14      30.61R
Boston Logan   CLOUDY    40  27  59 E16       30.64S WCI  31
Ft. Lauderdale FAIR      79  70  74 E18       30.36R
Chicago O`Hare PTSUNNY   36  28  73 NE14      30.55S WCI  27
Chicago Midway CLOUDY    36  30  79 E10       30.55R WCI  28
Houston Bush   FOG       57  57 100 N5        30.22R VSB 1/2
Houston Hobby  CLOUDY    59  59 100 NE5       30.21R FOG
Nashville      CLOUDY    58  55  90 NW8       30.34R
Atlanta        PTSUNNY   68  65  90 SE5       30.46R

$$

GAZ044-118-TXZ119-213-NCZ071-DCZ001-MDZ014-506-PAZ021-071-NJZ106-
NYZ176-178-MAZ106-OHZ011-021-055-MIZ076-KYZ091-ILZ014-INZ047-
MNZ060-ONZ431-221600-

...Gateway Observations for Savannah International...

CITY           SKY/WX    TMP DP  RH WIND       PRES   REMARKS
Savannah Arpt  FAIR      74  64  71 S5        30.50R
Atlanta        PTSUNNY   68  65  90 SE5       30.46R
Charlotte      CLOUDY    68  64  87 SW13      30.48S
Dallas DFW     TSTM      36  35  96 E17       30.22F VSB 1/2 WCI  26
Houston Bush   FOG       57  57 100 N5        30.22R VSB 1/2
Wash National  CLOUDY    55  41  59 NE14      30.49R
Wash Dulles    CLOUDY    51  39  63 N8        30.48S
Baltimore      CLOUDY    51  42  71 NE13      30.49S
Philadelphia   CLOUDY    47  40  76 NE13G22   30.54F
Newark         LGT RAIN  44  37  76 N15       30.61R
Laguardia      CLOUDY    46  36  68 NE12      30.60R
J F K          CLOUDY    46  36  68 NE14      30.61R
Boston         CLOUDY    40  27  59 E16       30.64S WCI  31
Pittsburg      LGT RAIN  39  38  96 NE14G22   30.46S WCI  31
Akron          LGT RAIN  35  31  85 NE10      30.51R FOG     WCI  27
Cleveland      LGT RAIN  37  32  82 SE10      30.54R WCI  30
Cincinnati     CLOUDY    42  41  96 NE9       30.44R FOG
Columbus       CLOUDY    38  37  97 E20G26    30.37F WCI  28
Detroit        CLOUDY    32  22  66 NE12      30.61F WCI  23
Chicago O`Hare PTSUNNY   36  28  73 NE14      30.55S WCI  27
Minneapolis    CLOUDY    17   7  64 E8        30.57F WCI   7
Indianapolis   CLOUDY    37  35  92 NE20G25   30.46R WCI  27
Toronto Canada CLOUDY    30  21  69 E8        30.65S WCI  23

$$




USA.gov is the U.S. government's official web portal to all federal, state and local government web resources and services.